Regional Weather Roundup
Issued by NWS Sterling, VA

Home | Current Version | Previous Version | Text Only | Print | Product List | Glossary On
Versions: 1 2 3 4 5 6 7 8 9 10 11 12 13 14 15 16 17 18 19 20 21 22 23 24 25 26 27 28 29 30 31 32 33 34 35 36 37 38 39 40 41 42 43 44 45 46 47 48 49 50
744
ASUS41 KLWX 260411
RWRLWX

REGIONAL WEATHER ROUNDUP
NATIONAL WEATHER SERVICE BALTIMORE MD/WASHINGTON DC
1100 PM EST SAT FEB 25 2017

Note: "FAIR" indicates few or no clouds below 12,000 feet
with no significant weather and/or obstructions to visibility.
 TC=TEMPERATURE CELSIUS

 * =Non NWS site. Station does not report precipitation (e.g. rain,
    snow, etc.), thunder, or fog.

DCZ001-MDZ009-015-VAZ040>042-051-053>054-260500-
WASHINGTON METRO

CITY           SKY/WX    TMP DP  RH WIND       PRES   REMARKS
WASHINGTON NAT PTCLDY    46  23  40 NW23G35   29.83R
DULLES         PTCLDY    42  21  43 NW25G32   29.83R
ANDREWS AFB    CLEAR     45  23  42 NW18G26   29.80R
FT BELVOIR     CLEAR     46  23  40 NW16G25   29.83R
QUANTICO       CLEAR     47  25  42 N18G28    29.83R
COLLEGE PARK*  CLEAR     45  23  42 W12G22    29.82R
LEESBURG*      MOCLDY    43  27  52 MISG      29.85R
MANASSAS*      CLEAR     44  23  43 NW16G28   29.84R
GAITHERSBURG*  CLOUDY    43  21  42 W15       29.85R

$$

MDZ006>007-011-014-260500-
BALTIMORE METRO

CITY           SKY/WX    TMP DP  RH WIND       PRES   REMARKS
BWI AIRPORT    PTCLDY    44  26  49 NW13      29.79R
MD SCIENCE CTR   N/A     47  21  35 MISG      29.78R
MARTIN STATE   PTCLDY    45  30  57 W14G23    29.81R
ANNAPOLIS      MOCLDY    48  27  44 NW9G18    29.79R
FORT MEADE*    PTCLDY    43  28  56 W14G23    29.83R

$$

MDZ012-015-019>023-260500-
MARYLAND EASTERN SHORE

CITY           SKY/WX    TMP DP  RH WIND       PRES   REMARKS
OCEAN CITY     CLOUDY    52  45  77 NW7       29.74R
SALISBURY      CLOUDY    52  40  63 NW12      29.74R
BAY BRIDGE AP* PTCLDY    48  28  46 NW16G25   29.79R
CAMBRIDGE*     MOCLDY    50  28  43 NW14G25   29.78R
EASTON*        PTCLDY    50  28  41 N22G28    29.81R

$$

MDZ017>025-260500-
SOUTHERN MARYLAND

CITY           SKY/WX    TMP DP  RH WIND       PRES   REMARKS
PATUXENT RIVER CLOUDY    49  31  49 NW21G33   29.78R
ST INIGOES     MOCLDY    52  31  44 VRB7      29.76R
LEONARDTOWN*   PTCLDY    48  28  46 NW8       29.80R

$$

MDZ003>005-260500-
NORTH CENTRAL MARYLAND

CITY           SKY/WX    TMP DP  RH WIND       PRES   REMARKS
FREDERICK*     CLOUDY    41  27  56 NW16G29   29.87R
HAGERSTOWN APT CLOUDY    40  22  48 NW26G37   29.83R WCI  29
WESTMINSTER*   CLOUDY    41  25  52 NW17      29.80R

$$

MDZ501>502-260500-
WESTERN MARYLAND

CITY           SKY/WX    TMP DP  RH WIND       PRES   REMARKS
OAKLAND*       CLOUDY    23  18  80 W16G28    29.81R WCI  10
CUMBERLAND*    CLOUDY    36  21  55 W14G24    29.95R WCI  27

$$

VAZ025>031-260500-
SHENANDOAH VALLEY

CITY           SKY/WX    TMP DP  RH WIND       PRES   REMARKS
WINCHESTER*    CLOUDY    37  21  52 W23G36    29.83R WCI  26
FRONT ROYAL*   PTCLDY    39  21  48 NW13G28   29.84R
LURAY*         PTCLDY    39  23  52 CALM      29.84R
NEW MARKET*    CLEAR     38  19  46 N3        29.85R
STAUNTON*      CLEAR     37  19  49 NW7       29.86R
WAYNESBORO*    CLEAR     37  19  46 W9        29.83R

$$

WVZ021-048>050-054>055-260500-
EASTERN WEST VIRGINIA PANHANDLE

CITY           SKY/WX    TMP DP  RH WIND       PRES   REMARKS
MARTINSBURG    CLOUDY    41  22  46 NW13G24   29.84R
PETERSBURG*    MOCLDY    37  22  53 W14G36    29.90R WCI  29

$$

VAZ036>039-050-260500-
CENTRAL FOOTHILLS

CITY           SKY/WX    TMP DP  RH WIND       PRES   REMARKS
CHARLOTTESVILL CLEAR     45  20  36 N7        29.83R
CULPEPER*      CLEAR     47  21  36 NW10G18   29.83R
ORANGE*        CLEAR     43  21  42 CALM      29.84R
GORDONSVILLE*  CLEAR     46  20  36 W7        29.82R
WARRENTON*     CLEAR     45  19  36 NW13G18   29.82R

$$

VAZ055>057-260500-
NORTH AND CENTRAL PIEDMONT

CITY           SKY/WX    TMP DP  RH WIND       PRES   REMARKS
FREDERICKSBRG* CLEAR     49  24  37 NW9       29.81R
STAFFORD*      CLEAR     44  24  45 NW16      29.85R

$$

NCZ024-NYZ072-PAZ021-071-VAZ022-071-260500-
OTHER REGIONAL OBSERVATIONS

CITY           SKY/WX    TMP DP  RH WIND       PRES   REMARKS
NEW YORK CITY  CLOUDY    47  39  74 NW8G16    29.65R
PHILADELPHIA   CLOUDY    49  34  56 NW16G25   29.71R
PITTSBURGH     FLURRIES  29  19  66 W21       29.94R WCI  16
ROANOKE        CLEAR     39  17  41 NW22G38   29.93R WCI  29
RICHMOND       PTCLDY    52  22  30 NW15G24   29.80R
RALEIGH        CLEAR     55  18  23 NW9       29.86R

$$

ANZ530>537-260500-
MARINE OBSERVATIONS

STATION/POSITION TIME  TEMP    WIND        PRES
                       AIR SEA DIR/SP/G
                 (UTC) (F)     (DEG/KT/KT) (MB)
THOMAS PT LIGHT  0400   48 44  310/ 18/ 22   N/A
BALT KEY BRIDGE  0348   46     310/ 28/ 31 1007.9R
COVE POINT       0348   48     350/ 21/ 25 1008.6R
LEWISETTA        0348   53 49  340/  8/ 12 1007.8R
SOLOMONS ISLAND  0348   51 46  330/ 13/ 21   N/A
PINEY POINT      0348          360/ 17/ 21   N/A

$$





USA.gov is the U.S. government's official web portal to all federal, state and local government web resources and services.